Showing default

QIANFAN-26, 61559

Orbit data source: Space-Track

QIANFAN-26, 61559 is a Chinese payload satellite in LEO that was launched on Tue, 15 Oct 2024 UTC via a CHANG ZHENG 6A launch vehicle from the Taiyaun Space Center, China (TSC). Payload-class satellites include a variety of spacecraft equipped with specific instruments for various scientific and technological missions. These include communications satellites like Starlink; space stations such as the ISS; scientific satellites like the Hubble; Earth observation satellites from companies like Planet Labs, Umbra, and HawkEye 360; GPS; miniature CubeSats for education and research; and military/defense satellites.

Loading next visibility...
Identifier
61559, 2024-185H
Orbit
LEO
Last TLE update
4 hours ago
Origin
Manufacturer
GESIH/SECM
Mission
Operational Commercial Communications
Bus & Motor
QIANFAN, Unknown motor
Mass
267 kg wet, ~267 kg dry
Launch date (UTC)
2024-10-15 (9 months ago)
Launch vehicle
CHANG ZHENG 6A
Launch site
Taiyaun Space Center, China (TSC)
Object type
Payload
Rocket body
Debris
Shape & HBR
Box + 1 Pan, 10 m
Radar Cross Section
13.200 m², Large (>1 m²)

Expand to show TLE details & history

TLE from 4 hours ago
0 QIANFAN-26
1 61559U 24185H   25192.19997275  .00000133  00000-0  12053-3 0  9995
2 61559  88.9826  96.4419 0007678 107.6707 252.5298 13.77712662 47419
Epoch: 2025-07-11T04:47Z
TLE epoch observation values (Epoch: 2025-07-11T04:47:57.645Z)
Latitude
-0.00005°
Longitude
95.09639°
Altitude
976.701 km
Speed
7.362 km/s
True Right ascension
06h 25m 46s
True Declination
0° 00' 00"
Sunlit
Object was in daylight at epoch
Visualization orbit readout
Latitude
49.74829°
Longitude
96.2754°
Altitude
976.958 km
Speed
7.369 km/s
Apparent Right ascension
07h 40m 48s
Apparent Declination
9° 21' 27"
Sunlit
Object is in daylight
Visualization observer readout
Local Sidereal Time
20:49:04
Azimuth
21.642° NNE
Elevation
-38.251°
Doppler factor
1
Orbital elements
Apogee altitude
974.664 km
Perigee altitude
963.382 km
Semi-major axis
7,347.16 km
Eccentricity
0.00077
Inclination
88.9826°
RAAN
96.4419°
Arg. of periapsis
107.6707°
True anomaly
Unknown
Mean anomaly
252.5298°
Eccentric anomaly
Unknown
Mean motion
3.44639 °/min
Orbital period
104.46 mins
BSTAR
0.00012053
Loading maneuver chart data...
Loading SW <> Apogee altitude chart data...
Loading historical data...
Loading historical data...
Loading historical data...
Loading historical data...
Loading historical data...
Loading historical data...
Loading historical data...

QIANFAN-26 Visibility forecast

Observer location: undefined°, undefined°

Span
Click to sort rows by Start time (UTC) header in descending order
Start Az.
Max El. time (UTC)
Max El. Az.
Max El.
End time (UTC)
End Az.
9 mins2025-07-11 17:07:31.315Z133.327° SE2025-07-11 17:11:31.315Z87.012° E26.664°2025-07-11 17:16:31.315Z23.839° NE
9 mins2025-07-11 18:52:31.315Z219.192° SW2025-07-11 18:56:31.315Z280.803° WNW31.394°2025-07-11 19:01:31.315Z340.957° N
10 mins2025-07-12 05:48:31.315Z5.727° NNE2025-07-12 05:52:31.315Z60.786° ENE44.216°2025-07-12 05:58:31.315Z177.074° S
5 mins2025-07-12 07:34:31.315Z308.081° NW2025-07-12 07:36:31.315Z286.907° WNW14.143°2025-07-12 07:39:31.315Z256.977° W
|